ESPE

Details ICAO ESPE
Name VIDSEL
Region Sweden
Timezone Europe/Stockholm (UTC+2.0)
Plans Departing 1
Arriving 3
Stats Elevation 597 ft / 182 m (AMSL)
Location 65.875322° 20.149912°
Runways 1
Magnetic Variation 8.527° E
Sunrise 2018-05-21 00:41:13 UTC / 2018-05-21 02:41:13 Local
Sunset 2018-05-21 20:33:36 UTC / 2018-05-21 22:33:36 Local
Advertisement - Login to hide

Runways

ID Width Length Bearing (true) Bearing (mag) Surface Threshold Offset Overrun Length
11 115 ft / 35 m 7,288 ft / 2,221 m 116.62° 108.09° Asphalt 0 ft / 0 m 0 ft / 0 m
29 115 ft / 35 m 7,288 ft / 2,221 m 296.66° 288.13° Asphalt 0 ft / 0 m 520 ft / 159 m

Map

Weather


0- 5 10 15 20 25 30 35+ Temperature / ° C

Clouds and Precipitation
Forecast for 2018-05-21 18:00 UTC. Updated 2 hours ago

Ground ~20,000 ft ~40,000 ft Winds

METAR

ESPE 211620Z AUTO 29012KT 9999 FEW080/// BKN150/// 17/07 Q1023

TAF

Not found

Frequencies

Tower 124.15 MHz TWR
Approach 124.15 MHz TCA
Tower 130.40 MHz TWR
Approach 119.20 MHz TCA
Warning: Do not use this data for real-world aviation or navigation. No guarantee of current accuracy is given.